Regional Weather Roundup
Issued by NWS Raleigh/Durham, NC

Home | Current Version | Previous Version | Text Only | Print | Product List | Glossary On
Versions: 1 2 3 4 5 6 7 8 9 10 11 12 13 14 15 16 17 18 19 20 21 22 23 24 25 26 27 28
000
ASUS42 KRAH 252210
RWRRAH
NORTH CAROLINA WEATHER ROUNDUP
NATIONAL WEATHER SERVICE RALEIGH NC
600 PM EDT SAT OCT 25 2014

NOTE: "FAIR" INDICATES FEW OR NO CLOUDS BELOW 12,000 FEET WITH NO
SIGNIFICANT WEATHER AND/OR OBSTRUCTIONS TO VISIBILITY.

NCZ001-053-055-056-065-067-252300-
WESTERN NORTH CAROLINA

CITY           SKY/WX    TMP DP  RH WIND       PRES   REMARKS
ASHEVILLE      CLOUDY    67  41  38 N14       30.02R
JEFFERSON      PTCLDY    61  41  47 NW8       30.01S
MORGANTON      CLOUDY    69  46  42 SW3       30.00R
HICKORY        PTCLDY    69  41  36 SW3       29.95S
RUTHERFORDTON  CLEAR     70  40  34 S9        29.97R
MOUNT AIRY     PTCLDY    68  41  36 CALM      29.94F
BOONE          NOT AVBL
$$

NCZ021-022-025-041-071-084-088-252300-
CENTRAL NORTH CAROLINA

CITY           SKY/WX    TMP DP  RH WIND       PRES   REMARKS
CHARLOTTE      PTCLDY    71  34  25 W5        29.95S
GREENSBORO     PTCLDY    69  36  29 W9        29.91S
WINSTON-SALEM  CLEAR     70  35  27 SW5       29.93S
RALEIGH-DURHAM CLEAR     66  45  46 W5        29.91S
FORT BRAGG     CLEAR     69  43  39 W7        29.91S
FAYETTEVILLE   CLEAR     70  41  34 W7        29.91S
BURLINGTON     CLEAR     70  36  28 SW3       29.90F
LAURINBURG     CLEAR     69  41  36 W7        29.93R
$$

NCZ011-015-027-028-043-044-047-080-103-252300-
NORTHEASTERN NORTH CAROLINA

CITY           SKY/WX    TMP DP  RH WIND       PRES   REMARKS
ROCKY MT-WILSO CLEAR     66  48  52 S3        29.89R
GREENVILLE     CLEAR     68  45  42 CALM      29.91R
WASHINGTON     CLEAR     68  45  44 CALM      29.89R
ELIZABETH CITY CLEAR     66  45  46 W7        29.87R
MANTEO         CLEAR     65  51  60 S8        29.87S
CAPE HATTERAS  CLEAR     63  52  67 W7        29.88S
$$

NCZ078-087-090-091-093-098-101-252300-
SOUTHEASTERN NORTH CAROLINA

CITY           SKY/WX    TMP DP  RH WIND       PRES   REMARKS
LUMBERTON      CLEAR     71  39  31 W6        29.92S
GOLDSBORO      CLEAR     68  48  48 W3        29.88S
KINSTON        CLEAR     72  43  35 SW6       29.90
KENANSVILLE    CLEAR     66  46  48 W3        29.91S
NEW BERN       CLEAR     68  51  54 SW3       29.89F
CHERRY POINT   CLEAR     66  52  60 S8        29.89F
BEAUFORT       CLEAR     66  50  56 SW8       29.89S
JACKSONVILLE   CLEAR     66  53  63 S8        29.88F
WILMINGTON     CLEAR     68  52  56 S6        29.90S
$$




USA.gov is the U.S. government's official web portal to all federal, state and local government web resources and services.